Погода в Тасмачах

Узбекистан     40°03′13″N   66°05′09″E
темп.,
°C
ветер,
м/с
пор.,
м/с
влажн.,
%
обл.,
%
осадки,
мм/ч
давл.,
гПа
погр.,
м
27 февраля, сб
сб2723:00−2юз112976 0.0 103074
02:00−2сз1129100 0.0 1029136
05:00−2сз0129100 0.0 102975
08:00−2вюв1226100 0.0 1029215
11:00+1з121789 0.0 1029841
14:00+6юз35110 0.0 10281311
17:00+6юз34140 0.0 10271043
20:00+2з11260 0.0 102922
28 февраля, вс
вс2823:00+2в23220 0.0 102825
02:000вюв33380 0.0 102661
05:000юв33390 0.0 102535
08:00+1юв33410 0.0 102475
11:00+8в23290 0.0 1022416
14:00+12в11230 0.0 1019865
17:00+12ссв112222 0.0 1018985
20:00+9всв223269 0.0 101922
1 марта, пн
пн123:00+7вюв344184 0.0 102051
02:00+6вюв3446100 0.0 102051
05:00+5вюв444483 0.0 101950
08:00+6вюв34400 0.0 102064
11:00+13вюв45250 0.0 1018461
14:00+18ююз79170 0.0 10171345
17:00+18зюз69170 0.0 10161792
20:00+12юз34310 0.0 101937
2 марта, вт
вт223:00+11з123445 0.0 102022
02:00+10сз2331100 0.0 102122
05:00+8ю1137100 0.0 102022
08:00+9в1236100 0.0 102223
11:00+14вюв3425100 0.0 1021510
14:00+17сз1220100 0.0 10201110
17:00+16зюз3323100 0.0 10201170
20:00+13ююз3433100 0.0 102190
3 марта, ср
ср323:00+11юз344092 0.0 102287
02:00+9зсз124788 0.0 102122
05:00+7зсз115478 0.0 102122
08:00+8зсз224896 0.0 102141
11:00+12зюз123198 0.0 1021428
14:00+15юз142898 0.0 10192031
17:00+15з432772 0.0 10181844
20:00+10зсз12451 0.0 101833